sat.trackr.live / text

‹ back to catalog

ONEWEB-0252

NORAD 48970 · 2021-060D

PAYLOAD ACTIVE UNKNOWN

§ Identity

Operator
Country
UK
Launch date
2021-07-01
Launch site
VOSTO
Launch vehicle
Mass (kg)
RCS (m²)

Purposes: comms

External: N2YO · Heavens-Above · Gunter

§ Orbital elements

Epoch: 2026-09-09T03:16:27.863904Z

Period
109.37 min
Inclination
87.9137°
Eccentricity
0.0001958
Mean motion
13.16581462 rev/d
Perigee alt
1,196.3 km
Apogee alt
1,199.3 km
Semi-major
7,575.9 km
B*
6.1836e-3
RAAN
212.0991°
Arg perigee
86.7745°
Mean anomaly
273.3610°
Rev number
25,070

§ Raw data

ONEWEB-02521 48970U 21060D   26252.13643361  .00002377  00000+0  61836-2 0  99952 48970  87.9137 212.0991 0001958  86.7745 273.3610 13.16581462250702

JSON: /api/v1/satellites/48970 · /tle

For live sub-satellite position, see the globe view (requires WebGL).

§ Visibility from observer

Set your observer location to see the next 7 days of passes ≥ 10°. The values pass through the URL so the page stays shareable.

No JS? Fill the form by hand. The geolocation button needs JavaScript.